www.pogodaiklimat.ru
ПОГОДА в Брэдфорде
Время
и дата
17:53 23.06
17:59 23.06
18:11 23.06
18:53 23.06
19:12 23.06
19:53 23.06
20:53 23.06
21:19 23.06
21:53 23.06
22:46 23.06
22:53 23.06
23:26 23.06
23:51 23.06
23:53 23.06
00:38 24.06
00:53 24.06
01:12 24.06
01:44 24.06
01:53 24.06
02:24 24.06
02:53 24.06
03:28 24.06
03:53 24.06
04:53 24.06
05:53 24.06
06:53 24.06
07:53 24.06
08:01 24.06
08:53 24.06
09:53 24.06
10:53 24.06
11:53 24.06
12:53 24.06
13:53 24.06
14:53 24.06
15:53 24.06
16:53 24.06
17:53 24.06
18:53 24.06
19:53 24.06
20:53 24.06
21:53 24.06
22:53 24.06
23:53 24.06
23:56 24.06
00:05 25.06
00:53 25.06
01:53 25.06
Ветер
(напр.,м/с)
Видим. Явления Облачность Т
(С)
Тd
(С)
f
(%)
Тe
(С)
Тes
(С)
Комфортность P
(гПа)
Po
(гПа)
Тmin
(С)
Tmax
(С)
R
(мм)
R24
(мм)
S
(см)
З 5
{10}
3 км сильный дождь, дымка 10/10 300 m
[Ns]
+22.8 +21.1 90 +30 +30 очень
душно
1002.5 928.9
З 5
{9}
6 км слабый дождь, дымка 10/10 300 m
[Ns]
+22.8 +21.1 90 +30 +30 очень
душно
928.9
З 5 16 км 8/5 270 m
[Ac]
+23.3 +21.7 91 +32 +32 очень
душно
929.2
З 6
{10}
16 км 8/8 630 м +22.8 +21.1 90 +30 +30 очень
душно
1002.6 929.2 +22.8 +26.1 2.8
З 6
{10}
16 км 10/10 420 м +22.2 +20.6 91 +29 +29 очень
душно
929.5
СЗ 4 16 км 10/10 450 м +21.1 +18.9 87 +25 +25 комфорт 1003.5 930.1
З 4 16 км 10/10 570 м +20.0 +17.8 87 +23 +23 комфорт 1004.3 930.8
З 4 16 км 5/5 600 м +19.4 +17.2 87 +21 +21 комфорт 930.8
З 5
{9}
16 км 5/0 2100 m
[Ac]
+19.4 +17.2 87 +21 +21 комфорт 1004.6 930.8
З 3 16 км 8/8 450 m
[Ac]
+18.9 +17.2 90 +20 +20 931.4
З 3 16 км 10/8 450 m
[Ac]
+18.9 +17.2 90 +20 +20 1005.3 931.4
З 5 16 км 8/8 750 м +18.9 +16.7 87 +20 +20 931.4
СЗ 4 16 км 10/10 450 м +18.0 +17.0 94 +18 +18 931.4
СЗ 4 16 км 10/10 390 м +18.3 +16.7 90 +19 +19 1005.4 931.4
З 5
{9}
16 км 8/8 300 м +17.8 +15.6 87 +17 +17 931.4
З 6 16 км 8/8 450 м +17.2 +15.0 87 +16 +16 1005.5 931.4 +17.2 +22.8
СЗ 5 16 км 2/2 450 м +17.2 +15.0 87 +17 +17 931.4
З 5 16 км 8/8 510 м +16.7 +14.4 86 +16 +16 931.7
СЗ 4 16 км 10/10 510 м +16.7 +14.4 86 +16 +16 1005.6 931.7
З 5 16 км 5/5 480 м +16.1 +14.4 90 +15 +15 931.7
СЗ 6 16 км 5/5 450 м +16.1 +14.4 90 +15 +15 1005.7 931.7
СЗ 5
{8}
16 км 8/8 450 м +16.1 +14.4 90 +15 +15 932.0
СЗ 6 16 км 8/8 480 м +16.1 +13.9 87 +15 +15 1006.4 932.3
СЗ 7
{10}
16 км 10/10 630 м +16.1 +13.3 83 +15 +15 1007.3 933.3
СЗ 8
{11}
16 км 10/10 630 м +16.1 +12.8 81 +14 +14 1008.8 934.2
СЗ 6
{11}
16 км 8/8 630 м +16.1 +12.8 81 +15 +15 1009.8 935.2 +16.1 +17.2 14.5
С 6
{10}
16 км 8/8 660 м +18.3 +12.2 68 +18 +18 1010.6 936.1
С 6
{11}
16 км 5/5 660 м +18.3 +11.7 65 +18 +19 936.1
С 5
{12}
16 км 2/2 870 м +20.0 +10.6 55 +21 +24 комфорт 1011.3 936.7
СЗ 7
{10}
16 км 5/5 1020 м +20.6 +12.8 61 +23 +24 комфорт 1012.0 937.3
С 4
{10}
16 км 8/8 1140 м +22.2 +12.8 55 +25 +27 комфорт 1012.3 937.7
С 5
{9}
16 км 2/2 1350 м +23.3 +12.8 52 +26 +34 жарко 1012.8 938.3
СЗ 6 16 км 5/5 1470 м +23.3 +11.1 46 +26 +29 жарко 1012.8 938.0 +16.1 +24.4
С 7
{11}
16 км 2/2 1800 м +24.4 +11.7 45 +26 +30 жарко 1012.9 938.3
С 6
{10}
16 км 8/8 1950 м +25.0 +11.7 43 +26 +28 жарко 1013.1 938.3
СЗ 6 16 км 8/8 1800 м +25.0 +11.1 42 +26 +27 жарко 1013.1 938.3
СЗ 6
{11}
16 км 2/2 1800 м +23.3 +11.1 46 +26 +28 жарко 1013.1 938.3
СЗ 6
{10}
16 км ясно +23.9 +10.6 43 +25 +27 комфорт 1013.7 938.9
СЗ 4 16 км ясно +22.2 +11.1 49 +24 +26 комфорт 1014.0 938.9 +22.2 +25.6
СЗ 2 16 км ясно +19.4 +12.2 63 +21 +22 комфорт 1014.3 939.2
штиль 0 16 км ясно +15.6 +12.2 80 +15 +15 1015.0 939.5
штиль 0 16 км ясно +15.0 +12.2 83 +15 +15 1015.2 939.9
штиль 0 16 км ясно +13.9 +12.8 93 +13 +13 1015.0 939.9
штиль 0 5 км дымка ясно +12.2 +11.7 97 +12 +12 1015.1 939.9
ЮВ 2 3 км дымка ясно +12.2 +11.7 97 +11 +11 939.9
штиль 0 6 км дымка ясно +11.7 +11.1 96 +11 +11 939.9
СЗ 2 16 км ясно +12.8 +11.7 93 +12 +12 1015.4 940.2 +11.7 +22.2
штиль 0 16 км ясно +12.2 +10.6 90 +12 +12 1016.0 940.8
Местоположение метеостанции Bradford Regional Airport: широта 41.7986 долгота -78.6358 высота над уровнем моря 653 м.
В архиве по умолчанию представлена погода в Брэдфорде за последние 1-2 суток. Обновление информации о фактической погоде в базе происходит ежечасно! Архивные данные за месяц целиком и за предыдущие месяцы Вы можете получить, выбрав интересующий диапазон дат из раскрывающегося списка и нажав кнопку "Ввод!".
Внимание! Архив погоды МЕТАР в базе сайта по станциям, не включенным в климатический монитор, хранится не более 60 дней. Нет смысла пытаться выбрать более раннюю дату.
*Определитесь, кто Вы:
Внимание! Время в таблицах - местное (без учета летнего времени). Для получения всемирного времени необходимо вычесть поправку, которая равна -5 ч.
Смотрите также архив погоды в соседних городах и на ближайших метеорологических станциях:
Партнеры нашего сайта:      
Пояснения к столбцам:
  • Ветер - указаны скорость ветра в м/с - средняя за 10 мин, порывы в срок и между сроками (в фигурных скобках) и направление, откуда дует ветер: С - северный,
  • СВ - северо-восточный, В - восточный, ЮВ - юго-восточный, Ю - южный, ЮЗ - юго-западный, З - западный, СЗ - северо-западный.
  • Видимость - горизонтальная дальность видимости в метрах или километрах. При видимости от 1 до 10 км при отсутствии осадков обычно наблюдается дымка, при ухудшении видимости до 1 км и менее - туман. В сухую погоду видимость может ухудшаться дымом, пылью или мглою.
  • Явления - указаны атмосферные явления, наблюдавшиеся в срок или в последний час перед сроком; фигурными скобками обозначены явления, наблюдавшиеся между сроками (за 1-3 часа до срока); квадратными скобками обозначены град или гололедные отложения с указанием их диаметра в мм.
  • Облачность - указаны через наклонную черту общая и нижняя облачность в баллах и высота нижней границы облаков в метрах; квадратными скобками обозначены формы облаков: Ci - перистые, Cs - перисто-слоистые, Cc - перисто-кучевые, Ac - высококучевые, As - высокослоистые, Sc - слоисто-кучевые, Ns - слоисто-дождевые, Cu - кучевые, Cb - кучево-дождевые. Подробнее классификацию облаков см. в Атласе облаков (PDF).
  • T - Температура воздуха - температура, измеренная на высоте 2 м над землей.
  • Td - Температура точки росы - температура, при понижении до которой содержащийся в воздухе водяной пар достигнет насыщения.
  • f - Относительная влажность воздуха - влажноcть воздуха, измеренная на высоте 2 м над землей.
  • Te - Эффективная температура - температура, которую ощущает одетый по сезону человек в тени. Характеристика душности погоды. При расчете учитывается влияние влажности воздуха и скорости ветра на теплоощущения человека.
  • Tes - Эффективная температура на солнце - температура, которую ощущает человек, с поправкой на солнечный нагрев. Характеристика знойности погоды. Зависит от высоты солнца над горизонтом, облачности и скорости ветра. Ночью, в пасмурную погоду, а также при ветре 12 м/с и более поправка равна нулю.
  • P - Атмосферное давление - приведенное к уровню моря атмосферное давление.
  • Po - Атмосферное давление - измеренное на уровне метеостанции атмосферное давление.
  • Tmin - Минимальная температура - минимум температуры воздуха на высоте 2 м над землей.
  • Tmax - Максимальная температура - максимум температуры воздуха на высоте 2 м над землей.
  • R - Количество осадков - Количество выпавших осадков за период времени, мм. При наведении курсора мыши на число - период времени, за который выпало указанное количество осадков.
  • R24 - Количество осадков - Количество выпавших осадков за 24 часа, мм.
  • S - Снежный покров - Высота снежного покрова, см. При наведении курсора мыши на число - состояние снежного покрова и степень покрытия местности в баллах.